[[{"header":{"parameterUnit":"m.s-1","parameterCategory":2,"la1":30.2991,"la2":30.254,"lo1":-89.0895,"lo2":-89.0444,"dy":0.0017,"dx":0.0017,"nx":28,"ny":28,"refTime":"2026-01-02T09:00:00:Z","depth":"0","parameterNumber":2,"parameterNumberName":"U-component_of_CURRENTS"},"data":[0,0,0,0,0,0,0,0,0,0,0,0,0,0,0,0,0,0,0,0,0,0,0,0,0,0,0,0,0,0,0,0,0,0,0,0,0,0,0,0,0,0,0,0,0,0,0,0,0,0,0,0,0,0,0,0,0,0,0.4459,0.446,0,0.4523,0.4523,0.4524,0.4472,0.447,0.4468,0.4466,0.4449,0.445,0.4451,0,0,0,0,0,0,0,0,0,0,0,0,0,0.4314,0.4316,0.4459,0.446,0.4461,0.4523,0.4523,0.4524,0.4472,0.447,0.4467,0.4465,0.4448,0.445,0.4451,0,0,0,0,0,0,0,0,0,0,0,0,0,0.4373,0.4317,0.4459,0.4446,0.4445,0.4523,0.4523,0.4524,0.4472,0.447,0.4467,0.4464,0.4448,0.445,0.4452,0.4518,0,0,0.4457,0.4458,0,0,0,0,0,0,0,0,0.437,0.4378,0.4446,0.4447,0.4447,0.449,0.4466,0.4519,0.4473,0.4458,0.4466,0.4463,0.446,0.446,0.4474,0.4517,0.4517,0.4457,0.4459,0.4459,0.446,0,0,0,0,0,0,0,0.4366,0.4375,0.448,0.4448,0.4448,0.4445,0.4449,0.4476,0.4469,0.4459,0.4456,0.4471,0.4458,0.4472,0.4473,0.4516,0.4457,0.4459,0.446,0.4461,0.4653,0.4657,0,0,0,0,0,0,0.4369,0.4372,0.4478,0.4482,0.4405,0.445,0.4455,0.4476,0.447,0.4469,0.4473,0.4468,0.4471,0.4471,0.4472,0.4578,0.4459,0.4461,0.4462,0.4649,0.4654,0.4658,0,0,0,0,0,0,0.4365,0.4378,0.4476,0.4431,0.4443,0.4455,0.4479,0.4478,0.4499,0.4483,0.4478,0.4495,0.4468,0.447,0.4521,0.4576,0.4462,0.4464,0.4645,0.4651,0.4656,0.4773,0,0,0,0,0,0,0.4361,0.4377,0.4393,0.4432,0.4446,0.4553,0.4482,0.4482,0.4514,0.4508,0.4501,0.4496,0.4466,0.4519,0.4523,0.4576,0.4465,0.464,0.4647,0.4654,0.4764,0.4782,0.4798,0,0,0,0,0,0.4356,0.4397,0.4394,0.4407,0.4469,0.4557,0.4565,0.4559,0.4518,0.456,0.4546,0.4496,0.4568,0.4524,0.4528,0.4583,0.4636,0.4645,0.4654,0.4756,0.4779,0.4797,0,0,0,0,0,0,0.434,0.4397,0.4394,0.4449,0.4511,0.4549,0.4584,0.458,0.4604,0.4585,0.4549,0.4547,0.4615,0.4597,0.4548,0.4665,0.4595,0.4605,0.4672,0.4692,0.4709,0.471,0.4467,0,0,0,0,0,0.4349,0.4394,0.4453,0.4501,0.4535,0.4563,0.4593,0.4598,0.4625,0.4631,0.4626,0.4629,0.466,0.467,0.4695,0.4762,0.4772,0.4802,0.4819,0.4833,0.4842,0.4936,0.4962,0.4688,0.4688,0.4688,0,0,0.4355,0.4394,0.4417,0.4502,0.454,0.4605,0.4574,0.4641,0.4689,0.4628,0.4687,0.4693,0.4695,0.4766,0.4794,0.4752,0.4921,0.4845,0.4856,0.4857,0.4948,0.4975,0.4998,0.4694,0.4693,0.4692,0,0,0.4399,0.4432,0.4485,0.4543,0.4619,0.465,0.4677,0.4736,0.4759,0.4829,0.4798,0.4844,0.488,0.4901,0.4911,0.5044,0.5012,0.5051,0.5127,0.5221,0.5243,0.5263,0.5316,0.534,0.5051,0.5052,0.5052,0,0.4403,0.4468,0.4519,0.4586,0.4632,0.4673,0.474,0.4793,0.4857,0.4895,0.4861,0.4951,0.4947,0.5039,0.5077,0.508,0.5114,0.5042,0.5241,0.5261,0.5279,0.5328,0.5353,0.5058,0.5058,0.5057,0.5056,0,0.4487,0.4535,0.458,0.4668,0.4736,0.4808,0.4885,0.4953,0.4974,0.5012,0.5115,0.513,0.5176,0.5194,0.5168,0.5305,0.5281,0.5255,0.5181,0.5314,0.5357,0.5381,0.5068,0.5066,0.5064,0.5062,0,0,0.4497,0.4612,0.4623,0.4656,0.4779,0.4835,0.4953,0.5067,0.513,0.5199,0.5293,0.5354,0.5357,0.5372,0.5366,0.5437,0.5591,0.5402,0.5404,0.544,0.5783,0.5642,0.5652,0.5604,0.5608,0.5612,0.5761,0,0.4542,0.4645,0.4706,0.48,0.4858,0.4941,0.5039,0.5144,0.5231,0.5339,0.5396,0.5476,0.543,0.5457,0.5532,0.5589,0.5658,0.5551,0.5662,0.5665,0.5511,0.5678,0.5392,0.5491,0.5784,0.5788,0.579,0,0.4593,0.4655,0.4748,0.4843,0.4878,0.494,0.5094,0.5191,0.5365,0.5434,0.5543,0.5594,0.5726,0.5655,0.5827,0.5764,0.5785,0.581,0.5816,0.5656,0.5567,0.5408,0.5522,0.5377,0.5826,0.5823,0.5821,0,0.4551,0.467,0.4732,0.4771,0.4905,0.496,0.5036,0.5207,0.5317,0.5504,0.5609,0.5747,0.583,0.5918,0.5972,0.5924,0.6143,0.6081,0.597,0.5959,0.5721,0.568,0.5688,0.6199,0.6198,0.6198,0.6197,0,0.4562,0.4602,0.4703,0.4734,0.4818,0.4917,0.5044,0.5151,0.5341,0.5484,0.5639,0.577,0.5904,0.6038,0.6059,0.61,0.6221,0.6019,0.6009,0.5752,0.5714,0.5576,0.5541,0.6203,0.6202,0.6201,0.62,0,0.4505,0.4571,0.464,0.4759,0.4797,0.4853,0.5035,0.5142,0.532,0.5525,0.5597,0.5836,0.5999,0.6112,0.6254,0.6192,0.6073,0.6215,0.5884,0.583,0.5534,0.5517,0.537,0.5217,0.6127,0.6125,0.6123,0,0.4487,0.4518,0.4633,0.4684,0.4734,0.4842,0.4935,0.511,0.5234,0.5549,0.5638,0.5871,0.599,0.6158,0.6105,0.6134,0.5997,0.5865,0.5708,0.5512,0.5488,0.5318,0.5188,0.5451,0.5444,0.5438,0.5433,0,0.4474,0.4508,0.4572,0.4668,0.4748,0.4841,0.4968,0.5047,0.5273,0.5428,0.5623,0.5742,0.5897,0.5781,0.5806,0.5786,0.5571,0.5739,0.5642,0.5057,0.477,0.4616,0.5349,0.538,0.5385,0.5389,0.5392,0.5394,0.4471,0.4502,0.4591,0.4656,0.4735,0.4787,0.4794,0.493,0.5047,0.5159,0.5419,0.5432,0.547,0.5446,0.5403,0.5138,0.5192,0.4943,0.4973,0.4844,0.4576,0.5174,0.5119,0.5122,0.5125,0.5128,0.5131,0,0.448,0.4517,0.4585,0.4628,0.4622,0.4703,0.4777,0.4717,0.4718,0.4842,0.4929,0.4882,0.4772,0.4777,0.4615,0.4402,0.421,0.4291,0.4,0.3938,0.4561,0.4407,0.4063,0.4063,0.4063,0.4064,0.4064,0.4064,0.4505,0.4544,0.4543,0.4495,0.4492,0.4401,0.4374,0.429,0.4283,0.4139,0.4039,0.4113,0.4302,0.4305,0.4061,0.3946,0.367,0.3458,0.3539,0.3994,0.4056,0.4115,0.3961,0.3529,0.3529,0.2678,0.2672,0.2668]},{"header":{"parameterUnit":"m.s-1","parameterCategory":2,"la1":30.2991,"la2":30.254,"lo1":-89.0895,"lo2":-89.0444,"dy":0.0017,"dx":0.0017,"nx":28,"ny":28,"refTime":"2026-01-02T09:00:00:Z","depth":"0","parameterNumber":3,"parameterNumberName":"V-component_of_CURRENTS"},"data":[0,0,0,0,0,0,0,0,0,0,0,0,0,0,0,0,0,0,0,0,0,0,0,0,0,0,0,0,0,0,0,0,0,0,0,0,0,0,0,0,0,0,0,0,0,0,0,0,0,0,0,0,0,0,0,0,0,0,0.0272,0.0272,0,0.0232,0.0232,0.0231,0.0187,0.0187,0.0186,0.0186,0.0121,0.012,0.0119,0,0,0,0,0,0,0,0,0,0,0,0,0,0.0242,0.0243,0.0272,0.0272,0.0271,0.0232,0.0232,0.0231,0.0187,0.0187,0.0186,0.0185,0.0122,0.012,0.0119,0,0,0,0,0,0,0,0,0,0,0,0,0,0.0233,0.0243,0.0272,0.0246,0.0243,0.0233,0.0232,0.0231,0.0187,0.0187,0.0186,0.0185,0.0122,0.0121,0.0119,0.0123,0,0,0.0113,0.0112,0,0,0,0,0,0,0,0,0.0233,0.0234,0.025,0.0248,0.0245,0.0215,0.0197,0.0194,0.0188,0.0207,0.0186,0.0185,0.0152,0.0148,0.014,0.012,0.0117,0.0113,0.0112,0.0111,0.011,0,0,0,0,0,0,0,0.0234,0.0235,0.0255,0.025,0.0246,0.0213,0.0211,0.0196,0.0183,0.0205,0.0202,0.02,0.015,0.0142,0.0138,0.0116,0.0113,0.0111,0.011,0.0109,0.0093,0.0094,0,0,0,0,0,0,0.0247,0.0236,0.0256,0.0254,0.0238,0.0214,0.0212,0.0224,0.0183,0.0177,0.0201,0.0199,0.0146,0.0141,0.0136,0.0162,0.0111,0.0109,0.0108,0.0092,0.0093,0.0094,0,0,0,0,0,0,0.0246,0.0249,0.0258,0.0244,0.0243,0.0216,0.023,0.0224,0.0216,0.0181,0.0173,0.0199,0.0145,0.0139,0.0128,0.0158,0.0108,0.0107,0.0091,0.0092,0.0093,0.0199,0,0,0,0,0,0,0.0246,0.025,0.026,0.0246,0.0244,0.0269,0.023,0.0224,0.0216,0.0212,0.0177,0.017,0.0144,0.0131,0.0126,0.0155,0.0105,0.0091,0.0092,0.0093,0.0195,0.0203,0.0211,0,0,0,0,0,0.0245,0.0274,0.0261,0.0263,0.026,0.0271,0.0268,0.0243,0.0217,0.0229,0.0196,0.0171,0.0135,0.013,0.0124,0.0153,0.009,0.0092,0.0093,0.0191,0.0202,0.0211,0,0,0,0,0,0,0.0268,0.0272,0.0257,0.0286,0.0282,0.0264,0.0272,0.0249,0.0231,0.0222,0.018,0.0172,0.017,0.0145,0.014,0.0149,0.0108,0.0109,0.0185,0.0195,0.0203,0.024,0.0104,0,0,0,0,0,0.0278,0.0298,0.0293,0.0313,0.0317,0.0291,0.0289,0.0274,0.0257,0.0247,0.0221,0.0191,0.0173,0.017,0.0146,0.0158,0.0137,0.017,0.0179,0.0186,0.0211,0.0213,0.0224,0.0099,0.0099,0.0099,0,0,0.0291,0.0295,0.0306,0.0318,0.0312,0.0339,0.0289,0.0297,0.032,0.0244,0.0262,0.0216,0.0178,0.0187,0.0185,0.0172,0.0204,0.0188,0.0195,0.0216,0.0216,0.0228,0.0239,0.01,0.01,0.0099,0,0,0.0342,0.0335,0.0374,0.0381,0.0382,0.0371,0.0377,0.0364,0.036,0.0363,0.0314,0.0291,0.0264,0.0252,0.024,0.028,0.0239,0.0264,0.035,0.0352,0.0363,0.0372,0.0339,0.0345,0.0279,0.0279,0.0279,0,0.0357,0.0409,0.0386,0.0428,0.0446,0.0393,0.0444,0.0436,0.0419,0.0435,0.0384,0.0353,0.0302,0.0335,0.0334,0.0303,0.0284,0.0319,0.0366,0.0375,0.0383,0.0346,0.0352,0.0284,0.0284,0.0283,0.0283,0,0.0446,0.0481,0.0507,0.0544,0.0556,0.059,0.0581,0.059,0.0561,0.0553,0.0563,0.0491,0.0479,0.0451,0.0398,0.0438,0.0397,0.0369,0.0348,0.0402,0.0359,0.0363,0.0292,0.029,0.0288,0.0287,0,0,0.05,0.0561,0.0569,0.0617,0.0625,0.0657,0.0692,0.073,0.0783,0.0728,0.0796,0.0716,0.0665,0.0646,0.0579,0.0569,0.0573,0.0497,0.0495,0.0478,0.0557,0.05,0.0498,0.0559,0.056,0.0562,0.0496,0,0.058,0.0694,0.0692,0.0793,0.0855,0.0829,0.088,0.0898,0.0895,0.0943,0.0871,0.0894,0.0747,0.0749,0.0706,0.0627,0.0591,0.0592,0.0496,0.0492,0.0448,0.0504,0.0493,0.0433,0.05,0.05,0.05,0,0.0672,0.0742,0.0859,0.0951,0.0977,0.1017,0.1103,0.1146,0.1179,0.1181,0.1167,0.1111,0.1081,0.0951,0.0828,0.0837,0.0698,0.0615,0.0611,0.0532,0.0445,0.0393,0.0437,0.0224,0.0505,0.0505,0.0505,0,0.075,0.0859,0.0964,0.0993,0.108,0.113,0.1173,0.122,0.1302,0.1348,0.1414,0.1333,0.1326,0.1167,0.0947,0.0901,0.0816,0.0733,0.0544,0.0537,0.0497,0.0484,0.0343,0.0642,0.0642,0.0642,0.0643,0,0.0849,0.0933,0.1012,0.1074,0.1214,0.1232,0.1379,0.141,0.1501,0.1643,0.1545,0.1635,0.1383,0.1291,0.1051,0.0823,0.0887,0.0578,0.0534,0.0528,0.0519,0.0306,0.018,0.064,0.064,0.0641,0.0641,0,0.0926,0.097,0.1104,0.1214,0.1255,0.1359,0.1514,0.1633,0.1694,0.188,0.1915,0.1878,0.1761,0.149,0.1246,0.0979,0.0628,0.0651,0.064,0.0595,0.0195,0.0076,-0.0128,-0.0206,0.0436,0.0435,0.0433,0,0.0981,0.1057,0.1207,0.1298,0.1352,0.1504,0.1621,0.1718,0.186,0.2049,0.216,0.2107,0.2095,0.17,0.1243,0.0833,0.0604,0.053,0.0426,0.0194,0.0029,-0.0073,-0.0129,0.0398,0.0396,0.0395,0.0394,0,0.1092,0.1132,0.1243,0.1422,0.1556,0.1735,0.1908,0.2049,0.2207,0.2379,0.2571,0.2585,0.2198,0.1772,0.1181,0.0893,0.038,0.0489,0.0273,0.0016,-0.0124,-0.0225,0.0389,0.0383,0.0384,0.0385,0.0386,0.0386,0.1165,0.1259,0.139,0.1559,0.1725,0.1938,0.2104,0.2315,0.2568,0.2827,0.2838,0.2876,0.2242,0.1437,0.1041,0.0274,0.0267,0.0012,-0.0107,-0.0183,-0.0273,0.0301,0.023,0.0231,0.0231,0.0231,0.0231,0,0.1256,0.1358,0.1523,0.1726,0.1917,0.1986,0.2281,0.2468,0.2781,0.2974,0.3128,0.2791,0.2061,0.1318,0.0274,-0.0241,-0.0399,-0.05,-0.0639,-0.0662,-0.0127,-0.0142,-0.0323,-0.0323,-0.0323,-0.0323,-0.0323,-0.0322,0.1308,0.1462,0.1539,0.1838,0.1993,0.2255,0.243,0.2714,0.2901,0.3115,0.3088,0.3033,0.2414,0.0647,-0.0486,-0.072,-0.1054,-0.1172,-0.1296,-0.0944,-0.0905,-0.0868,-0.0911,-0.125,-0.1251,-0.1764,-0.177,-0.1774]}],[{"header":{"parameterUnit":"m.s-1","parameterCategory":2,"la1":30.2991,"la2":30.254,"lo1":-89.0895,"lo2":-89.0444,"dy":0.0017,"dx":0.0017,"nx":28,"ny":28,"refTime":"2026-01-02T09:00:00:Z","depth":"2","parameterNumber":2,"parameterNumberName":"U-component_of_CURRENTS"},"data":[0,0,0,0,0,0,0,0,0,0,0,0,0,0,0,0,0,0,0,0,0,0,0,0,0,0,0,0,0,0,0,0,0,0,0,0,0,0,0,0,0,0,0,0,0,0,0,0,0,0,0,0,0,0,0,0,0,0,0.3569,0.357,0,0.3616,0.3616,0.3616,0.3626,0.3626,0.3626,0.3626,0.3651,0.3652,0.3653,0,0,0,0,0,0,0,0,0,0,0,0,0,0.3493,0.3494,0.3569,0.357,0.357,0.3616,0.3616,0.3616,0.3626,0.3626,0.3626,0.3625,0.3651,0.3652,0.3653,0,0,0,0,0,0,0,0,0,0,0,0,0,0.353,0.3494,0.3569,0.3582,0.3584,0.3615,0.3616,0.3617,0.3626,0.3626,0.3626,0.3625,0.365,0.3652,0.3653,0.3666,0,0,0.3657,0.3657,0,0,0,0,0,0,0,0,0.3528,0.3532,0.3579,0.3581,0.3583,0.3616,0.3599,0.3633,0.3626,0.3608,0.3626,0.3625,0.3639,0.3641,0.3648,0.3668,0.3669,0.3657,0.3658,0.3658,0.3659,0,0,0,0,0,0,0,0.3525,0.353,0.3586,0.358,0.3583,0.3587,0.3592,0.3605,0.3623,0.361,0.3611,0.3619,0.3639,0.3647,0.3649,0.3669,0.3657,0.3658,0.3659,0.3659,0.3787,0.379,0,0,0,0,0,0,0.3523,0.3528,0.3584,0.3587,0.3556,0.3589,0.3594,0.3604,0.3623,0.3626,0.3619,0.3619,0.3645,0.3647,0.365,0.3736,0.3658,0.3659,0.366,0.3784,0.3788,0.379,0,0,0,0,0,0,0.3521,0.3528,0.3582,0.356,0.3567,0.3591,0.3602,0.3606,0.3628,0.3631,0.3633,0.364,0.3645,0.3648,0.369,0.3734,0.366,0.3661,0.3781,0.3785,0.3789,0.3863,0,0,0,0,0,0,0.3519,0.3527,0.3542,0.356,0.3569,0.3619,0.3603,0.3607,0.3633,0.3634,0.3649,0.365,0.3645,0.3688,0.3691,0.3734,0.3662,0.3778,0.3783,0.3788,0.3857,0.3869,0.3879,0,0,0,0,0,0.3516,0.3531,0.3543,0.355,0.3586,0.362,0.3626,0.364,0.3635,0.3656,0.3671,0.3651,0.3722,0.3691,0.3694,0.3739,0.3776,0.3782,0.3787,0.3852,0.3867,0.3879,0,0,0,0,0,0,0.3505,0.3535,0.3547,0.3571,0.3605,0.3623,0.3646,0.3651,0.3679,0.3688,0.3678,0.3682,0.3739,0.3731,0.3698,0.3793,0.3748,0.3755,0.3797,0.381,0.3821,0.3846,0.3663,0,0,0,0,0,0.3512,0.3531,0.3565,0.3587,0.3609,0.3631,0.3649,0.3666,0.3688,0.37,0.3709,0.3731,0.3764,0.378,0.3804,0.3849,0.3868,0.3884,0.3895,0.3904,0.3929,0.3995,0.4014,0.381,0.381,0.381,0,0,0.3514,0.3532,0.3545,0.3587,0.3613,0.3652,0.3642,0.3685,0.3717,0.3699,0.3748,0.3769,0.3787,0.3845,0.3869,0.3843,0.3974,0.3911,0.3918,0.394,0.4003,0.4023,0.404,0.3814,0.3813,0.3813,0,0,0.3526,0.355,0.3576,0.361,0.3661,0.3679,0.3696,0.3735,0.3759,0.3813,0.3815,0.3868,0.3901,0.3933,0.3949,0.4037,0.4032,0.4044,0.4115,0.4178,0.4195,0.4211,0.4265,0.4285,0.4045,0.4046,0.4046,0,0.3534,0.3564,0.3591,0.363,0.3666,0.3693,0.3742,0.3769,0.3815,0.3862,0.3842,0.3948,0.395,0.4038,0.407,0.4062,0.4095,0.4057,0.4192,0.4208,0.4222,0.4274,0.4295,0.405,0.4049,0.4049,0.4048,0,0.3566,0.36,0.3621,0.3678,0.3725,0.3768,0.3821,0.3872,0.3903,0.3943,0.4046,0.4063,0.4134,0.414,0.413,0.4243,0.4233,0.4198,0.4154,0.4247,0.4296,0.4316,0.4056,0.4054,0.4053,0.4052,0,0,0.3555,0.3629,0.3636,0.367,0.3758,0.379,0.3879,0.3969,0.4032,0.4093,0.4182,0.4251,0.4282,0.4306,0.4305,0.4353,0.4472,0.4326,0.4327,0.4374,0.4622,0.4491,0.45,0.4461,0.4465,0.4468,0.4616,0,0.3575,0.3635,0.3681,0.375,0.3794,0.387,0.3937,0.4032,0.4114,0.4202,0.4272,0.4345,0.4336,0.437,0.4434,0.4476,0.453,0.4436,0.4533,0.4536,0.4402,0.452,0.4158,0.4249,0.4636,0.4639,0.4642,0,0.359,0.3632,0.3698,0.3787,0.3815,0.3864,0.4005,0.4074,0.4227,0.429,0.4417,0.4467,0.4594,0.4528,0.4694,0.4641,0.465,0.4658,0.4663,0.4532,0.4442,0.422,0.4271,0.4675,0.4672,0.467,0.4668,0,0.3549,0.3638,0.3682,0.3715,0.3824,0.3886,0.3958,0.4116,0.4206,0.4357,0.4455,0.4595,0.4683,0.4748,0.4804,0.4767,0.4944,0.4885,0.4777,0.4767,0.4474,0.4432,0.4975,0.4975,0.4974,0.4974,0.4973,0,0.3537,0.3571,0.366,0.3683,0.3753,0.3859,0.3972,0.4063,0.4237,0.4352,0.4496,0.4603,0.4744,0.4863,0.4871,0.4913,0.5014,0.4829,0.481,0.4489,0.4448,0.4818,0.4798,0.4979,0.4978,0.4977,0.4976,0,0.3478,0.3531,0.3579,0.369,0.373,0.3783,0.3964,0.4045,0.4225,0.4388,0.4444,0.4675,0.4822,0.4931,0.5038,0.4999,0.5022,0.4982,0.4596,0.4528,0.479,0.4773,0.492,0.4917,0.4914,0.4912,0.491,0,0.3443,0.3462,0.3559,0.3594,0.3643,0.375,0.3821,0.4001,0.4111,0.4406,0.4468,0.4694,0.4791,0.4943,0.4902,0.4918,0.4984,0.4558,0.4407,0.4825,0.4793,0.4779,0.4765,0.4058,0.405,0.4043,0.4037,0,0.3384,0.3414,0.346,0.3531,0.3591,0.3653,0.3785,0.386,0.4077,0.4214,0.4379,0.4484,0.4673,0.4531,0.4573,0.4519,0.4535,0.4413,0.4978,0.4115,0.402,0.3985,0.3999,0.3974,0.398,0.3985,0.3988,0.3991,0.3332,0.3351,0.3409,0.3456,0.3516,0.3529,0.3529,0.3665,0.3759,0.3915,0.4129,0.4163,0.4249,0.4131,0.4005,0.3917,0.422,0.4015,0.4034,0.4061,0.3921,0.3825,0.3718,0.3722,0.3727,0.373,0.3733,0,0.3265,0.3293,0.334,0.337,0.3351,0.3429,0.3476,0.3426,0.3433,0.3616,0.3714,0.3463,0.3398,0.3476,0.3249,0.3246,0.3194,0.3106,0.2998,0.3066,0.3125,0.2933,0.247,0.2465,0.2461,0.2457,0,0,0.3243,0.322,0.3236,0.3163,0.3204,0.3103,0.3072,0.3011,0.3063,0.3015,0.3022,0.3304,0.3414,0.2908,0.2841,0.261,0.2817,0.2516,0.3542,0.3487,0.354,0.3676,0.3461,0,0,0,0,0]},{"header":{"parameterUnit":"m.s-1","parameterCategory":2,"la1":30.2991,"la2":30.254,"lo1":-89.0895,"lo2":-89.0444,"dy":0.0017,"dx":0.0017,"nx":28,"ny":28,"refTime":"2026-01-02T09:00:00:Z","depth":"2","parameterNumber":3,"parameterNumberName":"V-component_of_CURRENTS"},"data":[0,0,0,0,0,0,0,0,0,0,0,0,0,0,0,0,0,0,0,0,0,0,0,0,0,0,0,0,0,0,0,0,0,0,0,0,0,0,0,0,0,0,0,0,0,0,0,0,0,0,0,0,0,0,0,0,0,0,0.0214,0.0213,0,0.0177,0.0176,0.0176,0.0137,0.0137,0.0137,0.0136,0.0081,0.008,0.0079,0,0,0,0,0,0,0,0,0,0,0,0,0,0.0185,0.0186,0.0214,0.0213,0.0213,0.0177,0.0176,0.0176,0.0137,0.0137,0.0136,0.0136,0.0081,0.008,0.0079,0,0,0,0,0,0,0,0,0,0,0,0,0,0.0177,0.0187,0.0214,0.019,0.0188,0.0177,0.0176,0.0175,0.0138,0.0137,0.0136,0.0136,0.0082,0.008,0.0079,0.0082,0,0,0.0074,0.0073,0,0,0,0,0,0,0,0,0.0178,0.0178,0.0194,0.0192,0.0189,0.0162,0.0146,0.0144,0.0138,0.0156,0.0136,0.0135,0.0108,0.0104,0.0097,0.008,0.0077,0.0074,0.0073,0.0072,0.0072,0,0,0,0,0,0,0,0.0178,0.0179,0.0198,0.0194,0.0191,0.0159,0.0158,0.0145,0.0135,0.0154,0.0151,0.0149,0.0106,0.0099,0.0096,0.0077,0.0074,0.0072,0.0072,0.0071,0.0054,0.0054,0,0,0,0,0,0,0.0189,0.018,0.0199,0.0197,0.0183,0.016,0.0159,0.017,0.0135,0.013,0.015,0.0147,0.0102,0.0098,0.0094,0.011,0.0072,0.0071,0.007,0.0053,0.0054,0.0054,0,0,0,0,0,0,0.0189,0.0192,0.0201,0.0187,0.0186,0.0162,0.0175,0.017,0.0163,0.0132,0.0126,0.0148,0.0101,0.0096,0.0088,0.0107,0.007,0.0069,0.0053,0.0054,0.0054,0.0134,0,0,0,0,0,0,0.0189,0.0193,0.0202,0.0189,0.0188,0.0209,0.0176,0.017,0.0163,0.016,0.0129,0.0123,0.01,0.009,0.0086,0.0104,0.0067,0.0052,0.0053,0.0054,0.013,0.0137,0.0143,0,0,0,0,0,0.0188,0.0214,0.0203,0.0205,0.0203,0.021,0.0207,0.0185,0.0164,0.0173,0.0146,0.0124,0.0093,0.009,0.0085,0.0103,0.0052,0.0053,0.0054,0.0128,0.0136,0.0143,0,0,0,0,0,0,0.0208,0.0212,0.02,0.0226,0.0221,0.0204,0.021,0.019,0.0175,0.0168,0.0133,0.0126,0.0123,0.0101,0.0098,0.0098,0.0068,0.0068,0.0126,0.0133,0.0139,0.0168,0.0066,0,0,0,0,0,0.0217,0.0236,0.023,0.0249,0.0251,0.0228,0.0225,0.0212,0.0197,0.0189,0.0167,0.0141,0.0124,0.012,0.01,0.0106,0.0074,0.0112,0.0118,0.0124,0.0143,0.0102,0.0106,0.0058,0.0058,0.0058,0,0,0.0228,0.0233,0.0243,0.0254,0.0247,0.0269,0.0226,0.0231,0.0246,0.0186,0.0198,0.016,0.0128,0.0131,0.0128,0.0118,0.0119,0.0125,0.013,0.0146,0.0104,0.0108,0.0113,0.0059,0.0059,0.0059,0,0,0.027,0.0268,0.03,0.0306,0.0305,0.0295,0.03,0.0287,0.028,0.0281,0.0239,0.0216,0.0195,0.0178,0.0165,0.0194,0.0148,0.0184,0.0247,0.0207,0.0211,0.0214,0.0175,0.0174,0.0193,0.0193,0.0194,0,0.0282,0.0327,0.0309,0.0344,0.0358,0.0314,0.0355,0.0344,0.0327,0.0333,0.0296,0.0258,0.022,0.023,0.0234,0.021,0.0179,0.0224,0.0216,0.0219,0.0221,0.018,0.0177,0.0197,0.0197,0.0197,0.0196,0,0.0355,0.0385,0.0406,0.0438,0.0449,0.0475,0.0463,0.0466,0.044,0.0426,0.0418,0.0358,0.0341,0.0317,0.0284,0.0286,0.0257,0.0224,0.0202,0.023,0.0185,0.0181,0.0203,0.0202,0.02,0.02,0,0,0.0399,0.0449,0.0456,0.0495,0.0504,0.0529,0.055,0.057,0.06,0.055,0.0579,0.0519,0.0475,0.0458,0.0404,0.0366,0.0335,0.0309,0.0305,0.0278,0.0249,0.0201,0.0192,0.03,0.03,0.03,0.0211,0,0.0462,0.0554,0.0555,0.0637,0.0687,0.0663,0.0696,0.0701,0.0687,0.0702,0.0625,0.0624,0.0533,0.0524,0.0471,0.038,0.0331,0.0363,0.0219,0.0215,0.0175,0.0188,0.0222,0.0143,0.0207,0.0206,0.0206,0,0.0535,0.0592,0.0687,0.0758,0.0778,0.0812,0.0866,0.0895,0.0889,0.0875,0.0844,0.078,0.0727,0.0633,0.049,0.0516,0.0392,0.0303,0.0297,0.0228,0.0161,0.0124,0.0133,0.0199,0.0199,0.02,0.02,0,0.0595,0.0684,0.0767,0.0793,0.086,0.0897,0.0931,0.0949,0.1005,0.0991,0.1021,0.092,0.0895,0.073,0.0532,0.0515,0.0361,0.0312,0.0148,0.0143,0.0132,0.0126,0.0196,0.0196,0.0197,0.0197,0.0197,0,0.0671,0.0739,0.0806,0.0857,0.0966,0.0981,0.1091,0.11,0.1149,0.1238,0.1124,0.1155,0.0918,0.0796,0.0586,0.0365,0.0396,0.0168,0.0121,0.0159,0.0157,0.0174,0.0173,0.0193,0.0194,0.0195,0.0195,0,0.0728,0.0765,0.0873,0.0962,0.0999,0.1081,0.121,0.1296,0.1318,0.1429,0.1433,0.1345,0.1181,0.0924,0.0659,0.046,0.0233,0.0135,0.0193,0.0154,0.0027,0.0031,-0.004,-0.0042,-0.0044,-0.0046,-0.0047,0,0.0767,0.0827,0.0955,0.1034,0.1081,0.1208,0.1304,0.1369,0.1479,0.1553,0.1621,0.1493,0.1423,0.1014,0.0632,0.026,0.0207,0.0039,0.0002,0.0043,0.0004,0.0011,0.0018,0.0015,0.0015,0.0014,0.0013,0,0.0845,0.0881,0.0977,0.1138,0.1252,0.1403,0.1549,0.1658,0.1754,0.1829,0.1897,0.1839,0.1468,0.1092,0.0577,0.0324,0.01,0.0013,0.0052,0.0068,0.0087,0.0051,0.0057,0.0008,0.0008,0.0009,0.0009,0.0009,0.0901,0.0981,0.1101,0.1258,0.1399,0.158,0.1717,0.187,0.2029,0.2159,0.2093,0.2014,0.16,0.094,0.0497,0.004,0.0065,-0.0099,-0.0093,-0.0088,-0.0068,-0.0053,-0.0155,-0.0155,-0.0156,-0.0156,-0.0156,0,0.0979,0.1074,0.122,0.1408,0.1572,0.1636,0.1872,0.2,0.2185,0.2276,0.2308,0.1892,0.1471,0.0993,0.0319,-0.0086,-0.0104,-0.022,-0.0148,-0.0139,-0.0132,-0.0112,-0.0213,-0.0214,-0.0215,-0.0216,0,0,0.1024,0.1168,0.1246,0.1514,0.1659,0.1876,0.2014,0.2181,0.2291,0.2355,0.231,0.2213,0.1623,0.1121,0.0567,0.0179,0.0116,0.0101,0.0191,0.0351,0.0363,-0.0018,0.0028,0,0,0,0,0]}],[{"header":{"parameterUnit":"m.s-1","parameterCategory":2,"la1":30.2991,"la2":30.254,"lo1":-89.0895,"lo2":-89.0444,"dy":0.0017,"dx":0.0017,"nx":28,"ny":28,"refTime":"2026-01-02T09:00:00:Z","depth":"4","parameterNumber":2,"parameterNumberName":"U-component_of_CURRENTS"},"data":[0,0,0,0,0,0,0,0,0,0,0,0,0,0,0,0,0,0,0,0,0,0,0,0,0,0,0,0,0,0,0,0,0,0,0,0,0,0,0,0,0,0,0,0,0,0,0,0,0,0,0,0,0,0,0,0,0,0,0.2234,0.2235,0,0.2311,0.2312,0.2312,0.2394,0.2395,0.2396,0.2398,0.2506,0.2508,0.2509,0,0,0,0,0,0,0,0,0,0,0,0,0,0.2148,0.2149,0.2234,0.2235,0.2236,0.2311,0.2312,0.2312,0.2393,0.2395,0.2397,0.2398,0.2506,0.2508,0.2509,0,0,0,0,0,0,0,0,0,0,0,0,0,0.2199,0.2149,0.2233,0.2287,0.2293,0.2311,0.2312,0.2313,0.2393,0.2395,0.2397,0.2399,0.2505,0.2507,0.251,0.2484,0,0,0.2517,0.2518,0,0,0,0,0,0,0,0,0.2196,0.2202,0.2278,0.2284,0.229,0.2347,0.2321,0.2372,0.2393,0.2352,0.2398,0.24,0.2456,0.2462,0.2468,0.2489,0.2493,0.2517,0.2519,0.252,0.2521,0,0,0,0,0,0,0,0.2192,0.2199,0.2262,0.2279,0.2287,0.2305,0.2314,0.2331,0.239,0.2356,0.2363,0.2375,0.2459,0.2466,0.2472,0.2495,0.2517,0.2519,0.2521,0.2522,0.2659,0.2661,0,0,0,0,0,0,0.2186,0.2195,0.2259,0.2264,0.225,0.2305,0.2315,0.2325,0.239,0.2402,0.2373,0.2378,0.2461,0.2469,0.2476,0.2592,0.252,0.2522,0.2523,0.2657,0.2659,0.2662,0,0,0,0,0,0,0.2184,0.2191,0.2256,0.2234,0.2244,0.2305,0.2314,0.2325,0.2383,0.2403,0.2416,0.2426,0.2463,0.2473,0.2537,0.2592,0.2523,0.2525,0.2654,0.2657,0.266,0.2733,0,0,0,0,0,0,0.2181,0.2189,0.2217,0.2233,0.2245,0.2297,0.2313,0.2325,0.2385,0.2394,0.2451,0.246,0.2465,0.2533,0.2539,0.2594,0.2527,0.2651,0.2655,0.2659,0.2728,0.2738,0.2747,0,0,0,0,0,0.2177,0.2196,0.2218,0.2227,0.2273,0.2298,0.2307,0.2354,0.2386,0.2413,0.2459,0.2461,0.2564,0.2536,0.2543,0.26,0.2649,0.2654,0.2659,0.2723,0.2736,0.2747,0,0,0,0,0,0,0.2177,0.2206,0.2231,0.2261,0.2294,0.2314,0.2351,0.2378,0.2434,0.2461,0.248,0.2492,0.2573,0.2572,0.2541,0.2652,0.261,0.2617,0.2657,0.2669,0.2679,0.2687,0.2529,0,0,0,0,0,0.2187,0.2213,0.2241,0.2272,0.2293,0.2331,0.2358,0.2389,0.2428,0.2457,0.2498,0.2544,0.2587,0.2618,0.2651,0.2701,0.2712,0.2746,0.2755,0.2764,0.2776,0.2848,0.2865,0.2678,0.2678,0.2678,0,0,0.2195,0.2219,0.2235,0.2276,0.2309,0.2341,0.2354,0.2406,0.2449,0.2458,0.2546,0.2583,0.261,0.2677,0.2713,0.2689,0.282,0.277,0.2777,0.2785,0.2855,0.2873,0.2889,0.2681,0.268,0.268,0,0,0.2209,0.2249,0.2273,0.2305,0.2362,0.238,0.2406,0.2455,0.2502,0.2571,0.26,0.2669,0.2729,0.2762,0.2783,0.2863,0.2872,0.2887,0.2942,0.3012,0.3028,0.3042,0.3063,0.3079,0.2889,0.2889,0.2889,0,0.2225,0.2256,0.2286,0.2321,0.2358,0.2403,0.2441,0.2483,0.2553,0.2605,0.2616,0.2749,0.2768,0.2855,0.2887,0.2887,0.2917,0.2893,0.3025,0.3039,0.3052,0.3071,0.3088,0.2893,0.2892,0.2892,0.2892,0,0.2241,0.229,0.2311,0.2368,0.2409,0.2452,0.2506,0.2572,0.2636,0.2684,0.2807,0.2842,0.2927,0.2944,0.294,0.3053,0.304,0.303,0.2993,0.3076,0.309,0.3106,0.2899,0.2897,0.2896,0.2895,0,0,0.221,0.2304,0.2318,0.236,0.2443,0.247,0.2559,0.2644,0.272,0.2809,0.2911,0.2993,0.3044,0.307,0.309,0.3141,0.3246,0.3135,0.3137,0.3152,0.3387,0.3169,0.3164,0.3276,0.3279,0.3282,0.3352,0,0.2221,0.2288,0.2338,0.2415,0.2451,0.2535,0.261,0.2703,0.2789,0.2898,0.298,0.3083,0.3083,0.3141,0.3202,0.3242,0.3295,0.3226,0.3308,0.331,0.3103,0.3178,0.3294,0.3364,0.3367,0.337,0.3372,0,0.221,0.2261,0.2338,0.2447,0.2476,0.254,0.2678,0.2752,0.2907,0.2987,0.3116,0.3182,0.3299,0.3275,0.3407,0.3374,0.3398,0.3409,0.3413,0.3196,0.3121,0.3269,0.34,0.3398,0.3396,0.3394,0.3392,0,0.2148,0.2257,0.2322,0.2359,0.2488,0.2564,0.2648,0.2796,0.2883,0.306,0.3151,0.3292,0.3387,0.3455,0.3504,0.348,0.3619,0.3579,0.3402,0.3386,0.3528,0.3512,0.3675,0.3674,0.3674,0.3674,0.3674,0,0.211,0.2167,0.231,0.2343,0.2438,0.2549,0.2673,0.278,0.2951,0.305,0.3207,0.3299,0.3448,0.3541,0.3553,0.3524,0.3672,0.3421,0.3399,0.3553,0.354,0.3538,0.3521,0.3677,0.3676,0.3676,0.3675,0,0.2022,0.2119,0.2199,0.2355,0.2409,0.2483,0.2675,0.2752,0.2941,0.3076,0.3146,0.3355,0.3463,0.3562,0.3665,0.3568,0.3563,0.3518,0.3673,0.3656,0.3263,0.325,0.3304,0.3297,0.3291,0.3286,0.3282,0,0.1975,0.2009,0.2181,0.2229,0.231,0.244,0.2519,0.2724,0.2803,0.3073,0.3113,0.3314,0.3418,0.3391,0.3508,0.3512,0.3477,0.3439,0.3343,0.3258,0.3232,0.3227,0.3222,0.3273,0.3271,0.327,0.3268,0,0.188,0.1967,0.2034,0.2126,0.2222,0.2308,0.2443,0.249,0.2714,0.2917,0.301,0.3076,0.3193,0.3256,0.3296,0.3293,0.3435,0.3377,0.3387,0.3297,0.3221,0.32,0.3201,0.3248,0.3251,0.3253,0.3254,0,0.1815,0.1831,0.1926,0.1991,0.2102,0.2136,0.2231,0.2325,0.2439,0.2731,0.2758,0.2967,0.3162,0.3145,0.318,0.3162,0.3101,0.2976,0.3007,0.303,0.2907,0.2768,0.2646,0,0,0,0,0,0.1737,0.1728,0.1771,0.1832,0.1936,0.1999,0.2152,0.2253,0.2479,0.247,0.2607,0.2699,0.2771,0.2887,0.2811,0.3044,0.3103,0.2939,0.2972,0.3136,0.3159,0.3039,0,0,0,0,0,0,0.1673,0.1717,0.1712,0.1689,0.1703,0.1791,0.1886,0.2035,0.2044,0.2287,0.2346,0.2528,0.2644,0.279,0.2761,0.279,0.275,0.3074,0.3066,0.3123,0.3144,0.3163,0.3047,0,0,0,0,0]},{"header":{"parameterUnit":"m.s-1","parameterCategory":2,"la1":30.2991,"la2":30.254,"lo1":-89.0895,"lo2":-89.0444,"dy":0.0017,"dx":0.0017,"nx":28,"ny":28,"refTime":"2026-01-02T09:00:00:Z","depth":"4","parameterNumber":3,"parameterNumberName":"V-component_of_CURRENTS"},"data":[0,0,0,0,0,0,0,0,0,0,0,0,0,0,0,0,0,0,0,0,0,0,0,0,0,0,0,0,0,0,0,0,0,0,0,0,0,0,0,0,0,0,0,0,0,0,0,0,0,0,0,0,0,0,0,0,0,0,0.0176,0.0176,0,0.0155,0.0155,0.0155,0.0132,0.0132,0.0131,0.0131,0.0096,0.0095,0.0094,0,0,0,0,0,0,0,0,0,0,0,0,0,0.0151,0.0152,0.0176,0.0176,0.0176,0.0155,0.0155,0.0155,0.0132,0.0132,0.0131,0.0131,0.0096,0.0095,0.0094,0,0,0,0,0,0,0,0,0,0,0,0,0,0.0149,0.0152,0.0176,0.0162,0.0161,0.0155,0.0155,0.0155,0.0132,0.0132,0.0131,0.0131,0.0096,0.0095,0.0094,0.0097,0,0,0.0091,0.0091,0,0,0,0,0,0,0,0,0.0149,0.015,0.0164,0.0163,0.0161,0.0146,0.0133,0.0135,0.0132,0.0143,0.0131,0.0131,0.0112,0.0109,0.0106,0.0095,0.0094,0.0091,0.0091,0.009,0.009,0,0,0,0,0,0,0,0.015,0.015,0.0167,0.0164,0.0162,0.0141,0.0141,0.0133,0.0129,0.0142,0.014,0.0138,0.0111,0.0107,0.0105,0.0093,0.0091,0.009,0.009,0.0089,0.0081,0.0081,0,0,0,0,0,0,0.0156,0.0151,0.0168,0.0167,0.0154,0.0142,0.0142,0.0151,0.013,0.0126,0.0139,0.0137,0.0109,0.0106,0.0104,0.0116,0.009,0.0089,0.0089,0.008,0.0081,0.0081,0,0,0,0,0,0,0.0156,0.0158,0.0169,0.0158,0.0158,0.0144,0.0154,0.0151,0.0149,0.0128,0.0124,0.014,0.0109,0.0105,0.0103,0.0114,0.0089,0.0088,0.008,0.008,0.0081,0.0134,0,0,0,0,0,0,0.0155,0.0158,0.0167,0.0159,0.0159,0.0176,0.0154,0.0151,0.0149,0.0147,0.0128,0.0124,0.0108,0.0105,0.0102,0.0112,0.0087,0.0079,0.008,0.0081,0.0132,0.0136,0.014,0,0,0,0,0,0.0155,0.0174,0.0168,0.017,0.0172,0.0177,0.0176,0.0163,0.0149,0.0157,0.0141,0.0125,0.0107,0.0105,0.0101,0.0111,0.0079,0.008,0.0081,0.013,0.0135,0.014,0,0,0,0,0,0,0.0168,0.0174,0.0167,0.0187,0.0185,0.0173,0.018,0.0167,0.016,0.0157,0.0133,0.0128,0.0129,0.0113,0.0111,0.011,0.0089,0.0089,0.0127,0.0132,0.0136,0.015,0.0086,0,0,0,0,0,0.0176,0.0192,0.0188,0.0204,0.0206,0.0192,0.0191,0.0183,0.0175,0.0171,0.0157,0.0141,0.013,0.0126,0.0114,0.0118,0.0082,0.012,0.0124,0.0128,0.0136,0.0085,0.0085,0.0084,0.0084,0.0084,0,0,0.0184,0.0189,0.0197,0.0207,0.0204,0.022,0.0191,0.0197,0.0209,0.0169,0.018,0.0156,0.0133,0.0136,0.0134,0.0125,0.0109,0.0129,0.0133,0.0139,0.0085,0.0085,0.0085,0.0084,0.0084,0.0084,0,0,0.0213,0.0216,0.024,0.0245,0.0247,0.0241,0.0246,0.0239,0.0235,0.024,0.0211,0.0193,0.0184,0.0166,0.0156,0.0175,0.0131,0.0172,0.0207,0.0157,0.0157,0.0156,0.0107,0.0101,0.0176,0.0176,0.0176,0,0.0223,0.0254,0.0246,0.0271,0.0282,0.0255,0.0284,0.0278,0.027,0.027,0.0252,0.0222,0.0198,0.0194,0.0199,0.0185,0.015,0.0192,0.0162,0.0161,0.0159,0.0109,0.0102,0.0179,0.0178,0.0178,0.0178,0,0.0271,0.0295,0.0311,0.0336,0.0345,0.0365,0.0359,0.0362,0.0348,0.0336,0.0326,0.0286,0.0269,0.0253,0.0234,0.0216,0.0192,0.0172,0.015,0.0162,0.0109,0.0101,0.0182,0.0182,0.0181,0.018,0,0,0.0297,0.0338,0.0344,0.0372,0.0383,0.0402,0.0417,0.0427,0.0441,0.0411,0.0418,0.0381,0.0349,0.0334,0.0297,0.0252,0.0202,0.0214,0.021,0.0168,0.0091,0.0076,0.0066,0.0176,0.0175,0.0174,0.0057,0,0.0338,0.0402,0.0408,0.0467,0.0501,0.0489,0.0513,0.0514,0.05,0.0499,0.044,0.0435,0.0383,0.0376,0.0321,0.0235,0.0184,0.0236,0.0084,0.008,0.0067,0.0057,0.0171,0.0051,0.0049,0.0047,0.0046,0,0.0383,0.0424,0.0492,0.0545,0.0559,0.0589,0.0621,0.0641,0.0622,0.061,0.0576,0.0527,0.0466,0.0417,0.0269,0.0305,0.0208,0.013,0.0123,0.0088,0.0051,0.0036,0.0031,0.0032,0.0033,0.0034,0.0035,0,0.0413,0.0481,0.0541,0.056,0.0613,0.0642,0.0671,0.0676,0.071,0.0684,0.069,0.0598,0.0564,0.0426,0.0264,0.0266,0.0088,0.0068,-0.004,-0.0043,-0.0018,-0.0016,-0.0042,-0.0041,-0.0041,-0.0041,-0.0041,0,0.0454,0.0503,0.0566,0.0602,0.0683,0.07,0.0776,0.0782,0.0805,0.0847,0.0759,0.0754,0.0565,0.044,0.0282,0.0095,0.0096,-0.0036,-0.0074,0.0006,0.0013,-0.0025,-0.0021,-0.0045,-0.0044,-0.0043,-0.0043,0,0.0477,0.0514,0.0593,0.0669,0.0702,0.0764,0.0865,0.0921,0.0924,0.0972,0.097,0.087,0.0708,0.0501,0.0269,0.0134,-0.0054,-0.0122,-0.0021,-0.0051,-0.0156,-0.0149,-0.0249,-0.0251,-0.0252,-0.0253,-0.0254,0,0.0493,0.0536,0.0648,0.0711,0.0754,0.0854,0.093,0.098,0.104,0.1043,0.1066,0.0932,0.0834,0.0502,0.0273,-0.0042,-0.0085,-0.0191,-0.0175,-0.0151,-0.0178,-0.0168,-0.0159,-0.0256,-0.0256,-0.0257,-0.0257,0,0.0527,0.0568,0.0641,0.0769,0.0867,0.0984,0.1089,0.1138,0.119,0.1191,0.1147,0.0972,0.0786,0.0517,0.0266,0.0042,-0.0129,-0.0204,-0.0203,-0.019,-0.0161,-0.0184,-0.0173,-0.0261,-0.0261,-0.026,-0.026,0,0.0556,0.061,0.0709,0.0826,0.0953,0.1074,0.1129,0.1199,0.1254,0.1244,0.1224,0.1017,0.0897,0.056,0.033,0.0102,0.0047,-0.0031,-0.004,-0.0038,0.0052,0.0122,0.0075,0,0,0,0,0,0.0586,0.0654,0.0759,0.0891,0.1019,0.1098,0.1221,0.1266,0.1302,0.1287,0.1259,0.1084,0.0748,0.0606,0.0378,0.0293,-0.0005,0.0015,-0.0101,-0.0285,-0.028,-0.0212,0,0,0,0,0,0,0.0605,0.0707,0.076,0.0927,0.1025,0.1174,0.1258,0.1289,0.1279,0.1271,0.1104,0.1015,0.0695,0.0879,0.037,0.03,0.0192,-0.014,-0.0145,-0.0288,-0.0284,-0.028,-0.0208,0,0,0,0,0]}]]